Weather Roundup
Issued by NWS Springfield, MO

Home | Current Version | Previous Version | Text Only | Print | Product List | Glossary On
Versions: 1 2 3 4 5 6 7 8 9 10 11 12 13 14 15 16 17 18 19 20 21 22 23 24 25 26 27 28 29 30 31 32 33 34 35 36 37 38 39 40 41 42 43 44 45 46 47 48 49 50
000
NZUS99 KSGF 280707
HRRSGF

HOURLY WEATHER
NATIONAL WEATHER SERVICE SPRINGFIELD MO
200 AM CDT TUE MAR 28 2017

......SGF CWA......

CITY           SKY/WX    TMP DP  RH WIND       PRES   REMARKS
SPRINGFIELD    CLOUDY    51  49  92 N7        29.97S
JOPLIN         CLOUDY    51  50  96 NE6       29.99S
WEST PLAINS    CLOUDY    51  49  92 N5        29.96S
ROLLA          FOG       51  51 100 N6        29.94F VSB 1/2
OSAGE BEACH    CLOUDY   N/A N/A N/A W3        29.98S
BRANSON        CLOUDY    50  50 100 CALM      29.99R

......SURROUNDING SGF CWA......

CITY           SKY/WX    TMP DP  RH WIND       PRES   REMARKS
CHANUTE        CLOUDY    51  46  83 NE8       29.99S
PARSONS        CLOUDY    53  47  79 CALM      30.00S
COFFEYVILLE    CLOUDY    53  48  83 NE6       29.99S
EMPORIA        CLOUDY    50  48  93 NE6       29.99F
GROVE OK       CLOUDY    54  50  87 CALM      30.00S
ROGERS AR      CLOUDY    51  48  89 CALM      29.99R
SILOAM SPRINGS CLOUDY    52  45  76 NE3       29.98S
HARRISON AR    CLOUDY    53  48  83 NW3       29.98R
NEAR YELLVILLE CLOUDY    54  46  76 CALM      29.96R

......KANSAS AND MISSOURI......

CITY           SKY/WX    TMP DP  RH WIND       PRES   REMARKS
KANSAS CTY INT CLOUDY    49  45  86 N5        30.02R
DOWNTOWN KC    CLOUDY    51  46  83 NE6       30.02R
COLUMBIA       CLOUDY    51  50  96 N7        29.97F
SEDALIA        CLOUDY    50  49  96 N8        29.99S
ST JOSEPH      CLOUDY    48  47  96 CALM      30.04R
ST LOUIS       DRIZZLE   54  51  90 N10       29.97R FOG
SPIRIT OF STL  CLOUDY    55  52  89 N6        29.97R
KIRKSVILLE     CLOUDY    48  47  96 N3        30.01S FOG
WICHITA        CLOUDY    52  46  80 E9        29.98F
TOPEKA         CLOUDY    50  47  89 NE3       30.02S
OLATHE         CLOUDY    49  47  93 CALM      30.02R

......TENNESSEE......

CITY           SKY/WX    TMP DP  RH WIND       PRES   REMARKS
MEMPHIS        MOCLDY    63  58  83 E5        29.91R
NASHVILLE      CLOUDY    59  57  93 W5        29.89R FOG

......ARKANSAS.......

CITY           SKY/WX    TMP DP  RH WIND       PRES   REMARKS
FAYETTEVILLE   CLOUDY    52  48  86 CALM      29.97S
FT SMITH       CLEAR     49  45  86 CALM      29.96F
LITTLE ROCK    PTCLDY    57  55  93 N7        29.93S

......OKLAHOMA.......

CITY           SKY/WX    TMP DP  RH WIND       PRES   REMARKS
TULSA          PTCLDY    51  48  89 NE6       29.96F
PONCA CITY     CLOUDY    45  42  89 NE3       29.97S
MCALESTER      CLEAR     52  48  86 CALM      29.95S
OKLAHOMA CITY  PTCLDY    51  47  86 E9        29.95S

......IOWA............

CITY           SKY/WX    TMP DP  RH WIND       PRES   REMARKS
DES MOINES     CLOUDY    48  41  76 N3        30.04R
QUAD CITIES    CLOUDY    50  44  80 N3        29.99S

......ILLINOIS........

CITY           SKY/WX    TMP DP  RH WIND       PRES   REMARKS
QUINCY         CLOUDY    50  47  89 NW5       29.99S
CHICAGO        CLOUDY    42  36  79 N9        29.98F




USA.gov is the U.S. government's official web portal to all federal, state and local government web resources and services.